Location: LDNL
(36.4545°S, 141.6685°E)
Time: 10:33:18
(UTC+11:00)

CZ-2C DEB - Pass Details

Date: 15 October 2022
Orbit: 614 x 725 km, 98.4° (Epoch: 02 December)

Event Time Altitude Azimuth Distance (km) Brightness Sun altitude
Exits shadow 23:50:27 12° 189° (S) 2,006 ? -40.3°
Drops below altitude 10° 23:50:43 10° 189° (S) 2,114 ? -40.4°
Sets 23:53:01 0° 190° (S) 3,055 ? -40.6°
